Погода в Жакареи

Бразилия     23°18′15″S   45°57′44″W
темп.,
°C
ветер,
м/с
пор.,
м/с
влажн.,
%
обл.,
%
осадки,
мм/ч
давл.,
гПа
погр.,
м
28 июля, ср
ср2800:00+17юз3685100 0.0 1016569
03:00+16ю129299 0.5 1015240
06:00+14ю3795100 0.3 1016502
09:00+13ююв2693100 2.1 1018414
12:00+13ю3793100 2.3 1018493
15:00+12юз3694100 7.3 1017422
18:00+11ссв1294100 2.3 1018183
21:00+13з498591 2.3 1020508
29 июля, чт
чт2900:00+10зсз4108773 0.0 1021403
03:00+8зсз410810 0.0 1022396
06:00+6зюз24830 0.0 1024136
09:00+10ююз236429 0.0 1025806
12:00+14ю34457 0.0 10231418
15:00+15ю44373 0.0 10211519
18:00+8ююв48685 0.0 1025335
21:00+5ююз1280100 0.0 1029172
30 июля, пт
пт3000:00+5юз118599 0.0 1029109
03:00+4ю0187100 0.0 102984
06:00+4в018772 0.0 103084
09:00+8в2366100 0.0 1031497
12:00+14в2442100 0.0 10291135
15:00+16ююв444156 0.0 10261406
18:00+10ююв47715 0.0 1029420
21:00+7ююв12853 0.0 1032153
31 июля, сб
сб3100:00+6в12894 0.0 1032106
03:00+5всв129191 0.0 103198
06:00+4св139193 0.0 103292
09:00+9всв3573100 0.0 1033428
12:00+16всв3549100 0.0 10301012
15:00+19всв3439100 0.0 10261345
18:00+13юв3777100 0.0 1028226
21:00+10вюв138997 0.0 1031192
1 августа, вс
вс100:00+9всв2393100 0.0 1031127
03:00+8св139351 0.0 1031109
06:00+7всв1394100 0.0 1031115
09:00+12всв35745 0.0 1031493
12:00+18всв3446100 0.0 10291008
15:00+21всв23370 0.0 10261219
18:00+15вюв3565100 0.0 1027160
21:00+12ю138322 0.0 1028109